AKDT,Max TemperatureF,Mean TemperatureF,Min TemperatureF,Max Dew PointF,MeanDew PointF,Min DewpointF,Max Humidity, Mean Humidity, Min Humidity, Max Sea Level PressureIn, Mean Sea Level PressureIn, Min Sea Level PressureIn, Max VisibilityMiles, Mean VisibilityMiles, Min VisibilityMiles, Max Wind SpeedMPH, Mean Wind SpeedMPH, Max Gust SpeedMPH,PrecipitationIn, CloudCover, Events, WindDirDegrees
2010-10-1,57,50,44,46,42,36,90,77,54,29.37,29.13,28.92,10,10,10,17,5,25,0.00,6,Rain,25
2010-10-2,57,50,45,41,38,34,80,63,44,29.53,29.25,28.97,10,10,10,18,7,25,0.00,5,Rain,347
2010-10-3,55,48,41,39,35,26,86,65,37,29.54,29.34,29.17,10,10,10,21,2,37,0.00,6,,190
2010-10-4,53,45,37,37,33,29,83,63,50,29.64,29.59,29.51,10,10,10,6,2,,0.00,5,Rain,330
2010-10-5,51,44,36,32,30,27,73,61,43,29.48,29.19,29.05,10,10,10,9,4,,0.00,3,,97
2010-10-6,50,42,37,39,35,27,86,73,60,29.59,29.45,29.28,10,10,5,6,2,,0.04,7,Rain,343
2010-10-7,46,40,33,38,35,30,93,84,66,29.60,29.58,29.55,10,10,10,7,2,,0.00,6,,1
2010-10-8,51,41,34,37,34,28,96,81,48,29.63,29.58,29.51,10,6,0,8,2,,0.00,7,Fog-Rain,32
2010-10-9,46,37,28,31,28,25,89,72,50,29.49,29.29,29.20,10,10,10,6,3,,0.00,2,,97
2010-10-10,48,39,30,31,29,26,82,67,50,29.54,29.34,29.21,10,10,10,5,0,,0.00,3,,325
2010-10-11,42,37,33,36,33,29,93,86,76,29.73,29.65,29.55,10,9,0,5,1,,0.03,5,Fog-Rain,7
2010-10-12,46,39,33,33,30,21,92,77,50,29.73,29.66,29.57,10,6,0,8,3,,0.00,2,Fog,34
2010-10-13,44,34,25,24,21,19,78,63,41,29.83,29.77,29.67,10,10,10,5,1,,0.00,1,,341
2010-10-14,39,30,21,23,20,17,85,68,48,29.75,29.68,29.65,10,10,10,5,1,,0.00,0,,95
2010-10-15,36,30,24,25,22,18,82,70,61,29.87,29.83,29.76,10,10,10,4,1,,0.00,5,,12
2010-10-16,39,32,26,25,24,21,81,66,53,29.77,29.57,29.42,10,10,10,8,2,,0.00,6,,7
2010-10-17,44,40,36,30,28,25,76,66,55,29.42,29.15,28.83,10,10,10,8,2,,0.00,6,Rain,359
2010-10-18,55,46,36,35,31,29,82,62,42,29.45,29.11,28.84,10,10,10,6,1,,0.00,6,,21
2010-10-19,50,42,34,36,34,30,86,71,54,29.72,29.65,29.48,10,10,10,4,1,,0.00,6,Rain,356
2010-10-20,48,42,37,35,32,29,86,72,52,29.71,29.67,29.63,10,10,9,7,1,,0.00,5,,322
2010-10-21,44,38,32,31,29,28,85,74,58,29.70,29.67,29.65,10,10,10,7,1,,0.00,5,Rain,154
2010-10-22,46,41,36,31,28,25,79,66,44,29.67,29.57,29.48,10,10,10,4,0,,0.00,7,,357
2010-10-23,46,38,30,29,25,20,82,65,35,29.51,29.48,29.44,10,10,10,8,1,,0.00,4,,6
2010-10-24,41,34,28,26,22,20,75,60,43,29.46,29.32,29.22,10,10,10,7,2,,0.00,5,,54
2010-10-25,41,39,37,37,32,25,87,74,55,29.52,29.38,29.22,10,10,5,6,1,,0.05,8,Rain,114
2010-10-26,44,40,36,36,34,33,93,85,70,29.88,29.71,29.53,10,8,0,7,2,,0.03,6,Fog-Rain,13
2010-10-27,45,36,28,33,29,24,93,77,58,29.96,29.89,29.65,10,6,0,8,2,,0.00,5,Fog-Rain,4
2010-10-28,43,39,35,37,33,29,93,80,60,29.62,29.24,29.07,10,7,2,13,5,16,0.04,8,Rain-Snow,331
2010-10-29,41,36,30,34,29,22,93,79,60,29.12,29.06,29.00,10,7,0,8,1,,0.07,4,Fog,146
2010-10-30,34,30,28,24,21,18,78,67,54,29.13,29.11,29.07,10,10,10,7,3,,0.00,6,,12
2010-10-31,35,30,26,26,23,20,81,73,66,29.11,29.00,28.76,10,10,10,13,5,20,0.00,5,,8